Location: Casteau
(50.5142°N, 4.0161°E)
Time: 23:19:57
(UTC+00:00)

Tiros 1 - Visible Passes

Search period start: 28 July 2021 00:00
Search period end: 07 August 2021 00:00
Orbit: 630 x 663 km, 48.4° (Epoch: 28 July)

Date Brightness Start Highest point End Pass type
(mag) Time Alt. Az. Time Alt. Az. Time Alt. Az.
28 Jul 8.2 00:25:52 10° W 00:28:31 28° WSW 00:28:31 28° WSW visible
28 Jul 7.1 21:27:29 10° WSW 21:32:12 68° S 21:36:52 10° E visible
28 Jul 7.1 23:09:35 10° W 23:14:12 56° SSW 23:14:48 51° SSE visible
29 Jul 9.4 00:52:06 10° W 00:52:25 11° W 00:52:25 11° W visible
29 Jul 7.3 20:11:26 10° WSW 20:16:05 55° SSE 20:20:41 10° E visible
29 Jul 7.1 21:53:23 10° W 21:58:06 68° S 22:01:16 20° ESE visible
29 Jul 8.0 23:35:35 10° W 23:38:52 34° WSW 23:38:52 34° WSW visible
30 Jul 7.2 20:37:13 10° WSW 20:41:57 67° S 20:46:37 10° E visible
30 Jul 7.2 22:19:19 10° W 22:23:57 57° SSW 22:25:26 39° SE visible
31 Jul 9.1 00:01:46 10° W 00:03:03 16° WSW 00:03:03 16° WSW visible
31 Jul 7.1 21:03:07 10° W 21:07:50 69° S 21:12:03 13° ESE visible
31 Jul 7.6 22:45:18 10° W 22:49:40 41° SSW 22:49:40 41° SSW visible
01 Aug 7.2 21:29:02 10° W 21:33:43 59° SSW 21:36:21 25° ESE visible
01 Aug 8.6 23:11:28 10° W 23:13:57 22° WSW 23:13:57 22° WSW visible
02 Aug 7.2 20:12:50 10° W 20:17:35 69° S 20:22:16 10° E visible
02 Aug 7.6 21:55:01 10° W 21:59:30 43° SSW 22:00:41 36° SSE visible
02 Aug 9.6 23:38:10 10° WSW 23:38:18 10° WSW 23:38:18 10° WSW visible
03 Aug 7.3 20:38:46 10° W 20:43:27 61° SSW 20:47:26 14° ESE visible
03 Aug 8.2 22:21:08 10° W 22:25:03 28° SW 22:25:03 28° SW visible
04 Aug 7.6 21:04:43 10° W 21:09:15 45° SSW 21:11:50 23° SE visible
04 Aug 9.2 22:47:45 10° WSW 22:49:28 15° WSW 22:49:28 15° WSW visible
05 Aug 7.4 19:48:29 10° W 19:53:12 62° S 19:57:52 10° ESE visible
05 Aug 8.2 21:30:50 10° W 21:34:56 30° SSW 21:36:18 25° S visible
06 Aug 7.7 20:14:26 10° W 20:19:01 47° SSW 20:23:09 12° SE visible
06 Aug 8.9 21:57:20 10° W 22:00:27 17° SW 22:00:47 17° SSW visible
